[[{"header":{"parameterUnit":"m.s-1","parameterCategory":1,"la1":30.2991,"la2":30.254,"lo1":-89.0895,"lo2":-89.0444,"dy":0.0017,"dx":0.0017,"nx":28,"ny":28,"refTime":"2023-04-05T15:00:00:Z","depth":0,"parameterNumber":2,"parameterNumberName":"U-component_of_WINDS"},"data":[0,0,0,0,0,0,0,0,0,0,0,0,0,0,0,0,0,0,0,0,0,0,0,0,0,0,0,0,0,0,0,0,0,0,0,0,0,0,0,0,0,0,0,0,0,0,0,0,0,0,0,0,0,0,0,0,0,0,-3.2626,-3.2627,0,-3.2736,-3.2737,-3.2738,-3.2753,-3.2752,-3.2751,-3.275,-3.2864,-3.2867,-3.2871,0,0,0,0,0,0,0,0,0,0,0,0,0,-3.2431,-3.2435,-3.2626,-3.2627,-3.2629,-3.2736,-3.2737,-3.2739,-3.2754,-3.2752,-3.2751,-3.275,-3.2862,-3.2867,-3.2872,0,0,0,0,0,0,0,0,0,0,0,0,0,-3.2526,-3.2436,-3.2626,-3.2649,-3.2652,-3.2735,-3.2737,-3.2739,-3.2754,-3.2752,-3.2751,-3.2749,-3.2861,-3.2866,-3.2872,-3.294,0,0,-3.289,-3.2893,0,0,0,0,0,0,0,0,-3.252,-3.2533,-3.2644,-3.2648,-3.2651,-3.2729,-3.271,-3.2806,-3.2754,-3.2715,-3.275,-3.2749,-3.282,-3.2829,-3.2853,-3.2945,-3.295,-3.2891,-3.2895,-3.2897,-3.2899,0,0,0,0,0,0,0,-3.2514,-3.2528,-3.2669,-3.2646,-3.265,-3.2655,-3.2666,-3.2728,-3.2775,-3.2719,-3.272,-3.2733,-3.2822,-3.2848,-3.2856,-3.2952,-3.2891,-3.2896,-3.29,-3.2902,-3.3105,-3.3107,0,0,0,0,0,0,-3.2503,-3.2523,-3.2666,-3.2673,-3.2581,-3.2659,-3.2672,-3.2706,-3.2774,-3.2783,-3.2734,-3.2733,-3.2838,-3.2849,-3.286,-3.2944,-3.2897,-3.2903,-3.2906,-3.3103,-3.3105,-3.3107,0,0,0,0,0,0,-3.2499,-3.2515,-3.2662,-3.2598,-3.2617,-3.2664,-3.2702,-3.2709,-3.2735,-3.2786,-3.2794,-3.2751,-3.2837,-3.2852,-3.292,-3.2948,-3.2905,-3.2911,-3.3101,-3.3104,-3.3106,-3.3111,0,0,0,0,0,0,-3.2493,-3.2514,-3.2539,-3.2599,-3.262,-3.2719,-3.2703,-3.2712,-3.2745,-3.2745,-3.2805,-3.2813,-3.2837,-3.2911,-3.2926,-3.2955,-3.2915,-3.3099,-3.3102,-3.3106,-3.3109,-3.3114,-3.3118,0,0,0,0,0,-3.2486,-3.2537,-3.2541,-3.2558,-3.2653,-3.2721,-3.2733,-3.2759,-3.2747,-3.2773,-3.2807,-3.2811,-3.2943,-3.2918,-3.2935,-3.2966,-3.3097,-3.3101,-3.3105,-3.3107,-3.3113,-3.3118,0,0,0,0,0,0,-3.248,-3.2545,-3.255,-3.2621,-3.2665,-3.2723,-3.2757,-3.2765,-3.2814,-3.2812,-3.2843,-3.2856,-3.2923,-3.2952,-3.2923,-3.3036,-3.3019,-3.3026,-3.3014,-3.302,-3.3025,-3.3016,-3.292,0,0,0,0,0,-3.2486,-3.2535,-3.259,-3.2647,-3.2669,-3.2709,-3.274,-3.2756,-3.2803,-3.2822,-3.286,-3.2906,-3.2957,-3.2991,-3.3041,-3.3113,-3.3127,-3.3144,-3.3148,-3.3152,-3.3158,-3.3198,-3.3206,-3.3121,-3.3121,-3.3121,0,0,-3.2501,-3.2543,-3.2572,-3.2647,-3.2683,-3.2733,-3.2725,-3.2778,-3.2816,-3.283,-3.2896,-3.2926,-3.298,-3.305,-3.3083,-3.3076,-3.3184,-3.3157,-3.3159,-3.3163,-3.3203,-3.3211,-3.3218,-3.3124,-3.3123,-3.3123,0,0,-3.2553,-3.259,-3.2642,-3.2678,-3.2733,-3.2759,-3.2772,-3.2829,-3.2849,-3.2916,-3.2928,-3.2974,-3.3062,-3.31,-3.313,-3.3198,-3.3204,-3.3213,-3.3237,-3.3276,-3.3283,-3.3289,-3.3313,-3.3321,-3.3219,-3.3219,-3.3219,0,-3.2564,-3.264,-3.2667,-3.272,-3.2753,-3.2769,-3.2822,-3.2856,-3.2925,-3.2947,-3.2939,-3.305,-3.3087,-3.3166,-3.3183,-3.3207,-3.3223,-3.3206,-3.328,-3.3286,-3.3292,-3.3315,-3.3324,-3.322,-3.322,-3.322,-3.322,0,-3.2651,-3.2703,-3.2739,-3.2804,-3.2842,-3.2894,-3.293,-3.2965,-3.2979,-3.3006,-3.3075,-3.312,-3.318,-3.32,-3.3214,-3.3282,-3.3276,-3.3273,-3.3257,-3.33,-3.3322,-3.3331,-3.3221,-3.3221,-3.3221,-3.322,0,0,-3.2701,-3.2781,-3.2794,-3.2824,-3.2886,-3.2927,-3.2981,-3.3039,-3.3068,-3.3115,-3.3161,-3.3236,-3.3234,-3.3269,-3.3288,-3.3322,-3.3372,-3.3315,-3.3317,-3.3324,-3.345,-3.345,-3.346,-3.3377,-3.3379,-3.3381,-3.3445,0,-3.276,-3.2855,-3.2882,-3.2963,-3.3012,-3.3028,-3.3075,-3.3118,-3.3146,-3.3192,-3.3223,-3.3275,-3.3269,-3.329,-3.3325,-3.3359,-3.3398,-3.3355,-3.342,-3.3422,-3.3405,-3.3472,-3.3473,-3.3531,-3.3454,-3.3455,-3.3456,0,-3.2841,-3.2889,-3.2975,-3.3031,-3.3052,-3.3094,-3.3149,-3.3193,-3.3243,-3.3261,-3.33,-3.3316,-3.3373,-3.3355,-3.3434,-3.3404,-3.3433,-3.3454,-3.3457,-3.3463,-3.3441,-3.3479,-3.355,-3.3559,-3.347,-3.3469,-3.3468,0,-3.2868,-3.2954,-3.3017,-3.3042,-3.3109,-3.3138,-3.3168,-3.3216,-3.3249,-3.3299,-3.3321,-3.3376,-3.3406,-3.3449,-3.3479,-3.3463,-3.3556,-3.354,-3.3573,-3.3572,-3.359,-3.3589,-3.3666,-3.3611,-3.361,-3.361,-3.361,0,-3.293,-3.2981,-3.303,-3.3068,-3.3127,-3.3158,-3.3215,-3.3245,-3.3288,-3.3333,-3.3351,-3.3393,-3.3431,-3.3478,-3.3503,-3.3565,-3.3579,-3.3595,-3.36,-3.3592,-3.359,-3.3611,-3.3607,-3.3613,-3.3612,-3.3612,-3.3611,0,-3.2969,-3.3004,-3.3073,-3.3131,-3.3147,-3.3187,-3.3237,-3.3275,-3.3304,-3.3361,-3.3376,-3.3421,-3.3477,-3.3512,-3.3584,-3.3601,-3.3669,-3.3674,-3.3652,-3.3654,-3.3684,-3.368,-3.3777,-3.3791,-3.3726,-3.3727,-3.3727,0,-3.3006,-3.3046,-3.3109,-3.314,-3.3169,-3.3219,-3.3253,-3.3286,-3.3321,-3.3381,-3.3412,-3.347,-3.3517,-3.3607,-3.3647,-3.3702,-3.3707,-3.3738,-3.3716,-3.3707,-3.3707,-3.3704,-3.3708,-3.3741,-3.3741,-3.3742,-3.3742,0,-3.3068,-3.3083,-3.3131,-3.3186,-3.3226,-3.3271,-3.3316,-3.334,-3.3381,-3.3419,-3.3477,-3.3514,-3.3587,-3.3644,-3.3703,-3.3734,-3.3745,-3.3749,-3.3759,-3.3751,-3.3736,-3.3744,-3.366,-3.3746,-3.3746,-3.3745,-3.3745,-3.3745,-3.3107,-3.3143,-3.3193,-3.3246,-3.3283,-3.3325,-3.3363,-3.3397,-3.3445,-3.3507,-3.3524,-3.3584,-3.3634,-3.3714,-3.3746,-3.3794,-3.379,-3.3805,-3.3809,-3.3812,-3.3812,-3.3729,-3.3805,-3.3805,-3.3805,-3.3805,-3.3805,0,-3.3169,-3.3202,-3.325,-3.3312,-3.3354,-3.3361,-3.3411,-3.3446,-3.3499,-3.3544,-3.3591,-3.3657,-3.3713,-3.3757,-3.3814,-3.3844,-3.3851,-3.3858,-3.3856,-3.3863,-3.3813,-3.3798,-3.3852,-3.3852,-3.3852,-3.3852,-3.3852,-3.3852,-3.3206,-3.3268,-3.3289,-3.3369,-3.3402,-3.3461,-3.3489,-3.3528,-3.3564,-3.3637,-3.3683,-3.3712,-3.3757,-3.3817,-3.3869,-3.3881,-3.3901,-3.3907,-3.3919,-3.3871,-3.3866,-3.3861,-3.3847,-3.3911,-3.3911,-3.3965,-3.3966,-3.3966]},{"header":{"parameterUnit":"m.s-1","parameterCategory":1,"la1":30.2991,"la2":30.254,"lo1":-89.0895,"lo2":-89.0444,"dy":0.0017,"dx":0.0017,"nx":28,"ny":28,"refTime":"2023-04-05T15:00:00:Z","depth":0,"parameterNumber":3,"parameterNumberName":"V-component_of_WINDS"},"data":[0,0,0,0,0,0,0,0,0,0,0,0,0,0,0,0,0,0,0,0,0,0,0,0,0,0,0,0,0,0,0,0,0,0,0,0,0,0,0,0,0,0,0,0,0,0,0,0,0,0,0,0,0,0,0,0,0,0,4.1238,4.1239,0,4.1327,4.1328,4.1329,4.1337,4.1336,4.1335,4.1334,4.1425,4.1428,4.1431,0,0,0,0,0,0,0,0,0,0,0,0,0,4.1075,4.1078,4.1238,4.1239,4.124,4.1327,4.1328,4.1329,4.1337,4.1336,4.1335,4.1333,4.1424,4.1428,4.1432,0,0,0,0,0,0,0,0,0,0,0,0,0,4.1153,4.1079,4.1238,4.1254,4.1257,4.1327,4.1328,4.133,4.1337,4.1336,4.1334,4.1333,4.1422,4.1427,4.1432,4.1491,0,0,4.1447,4.145,0,0,0,0,0,0,0,0,4.1149,4.1159,4.1251,4.1253,4.1256,4.1319,4.1304,4.1384,4.1338,4.1307,4.1334,4.1332,4.1391,4.1398,4.1418,4.1496,4.15,4.1448,4.1451,4.1453,4.1454,0,0,0,0,0,0,0,4.1143,4.1156,4.1273,4.1252,4.1255,4.1258,4.1267,4.1319,4.1356,4.1309,4.131,4.132,4.1392,4.1413,4.142,4.1501,4.1448,4.1452,4.1455,4.1457,4.1635,4.1637,0,0,0,0,0,0,4.1135,4.1151,4.127,4.1276,4.1198,4.1262,4.1272,4.13,4.1355,4.1362,4.1322,4.132,4.1406,4.1415,4.1424,4.1499,4.1453,4.1458,4.146,4.1633,4.1636,4.1637,0,0,0,0,0,0,4.1131,4.1145,4.1267,4.1214,4.1229,4.1266,4.1298,4.1303,4.1324,4.1364,4.1371,4.1337,4.1405,4.1417,4.1475,4.1502,4.146,4.1464,4.1631,4.1634,4.1637,4.1649,0,0,0,0,0,0,4.1127,4.1144,4.1166,4.1214,4.1232,4.1316,4.1299,4.1306,4.1333,4.1332,4.138,4.1387,4.1405,4.1468,4.148,4.1508,4.1468,4.1629,4.1633,4.1636,4.1646,4.1652,4.1656,0,0,0,0,0,4.1121,4.1166,4.1168,4.1182,4.1261,4.1318,4.1328,4.1348,4.1335,4.1358,4.1385,4.1385,4.1497,4.1474,4.1488,4.1518,4.1628,4.1632,4.1635,4.1644,4.1651,4.1656,0,0,0,0,0,0,4.1119,4.1172,4.1175,4.1236,4.1273,4.1319,4.1349,4.1354,4.1394,4.1392,4.1414,4.1425,4.1484,4.1506,4.148,4.158,4.1561,4.1568,4.1563,4.157,4.1574,4.1568,4.1472,0,0,0,0,0,4.1126,4.1168,4.1212,4.1262,4.128,4.1312,4.1337,4.1349,4.1388,4.1403,4.1433,4.1471,4.1515,4.1543,4.1585,4.165,4.1661,4.1677,4.1682,4.1686,4.1692,4.1731,4.1739,4.165,4.165,4.165,0,0,4.1141,4.1175,4.12,4.1263,4.1292,4.1336,4.1324,4.137,4.1403,4.141,4.1468,4.1492,4.1535,4.1598,4.1627,4.1619,4.1719,4.1691,4.1694,4.1698,4.1736,4.1744,4.1751,4.1653,4.1653,4.1652,0,0,4.119,4.1219,4.1265,4.1296,4.1342,4.1363,4.1374,4.142,4.1437,4.1495,4.1502,4.1542,4.1616,4.1648,4.1674,4.1738,4.1741,4.1751,4.1777,4.1815,4.1822,4.1828,4.1853,4.1862,4.1757,4.1757,4.1757,0,4.1202,4.1268,4.1288,4.1336,4.1364,4.1373,4.1421,4.145,4.1506,4.1526,4.1516,4.1612,4.1641,4.1713,4.1729,4.1749,4.1764,4.1746,4.1819,4.1825,4.1832,4.1856,4.1865,4.1758,4.1758,4.1757,4.1757,0,4.1283,4.1328,4.136,4.1417,4.1449,4.1496,4.1524,4.1554,4.1564,4.1586,4.1648,4.1684,4.1735,4.1752,4.1762,4.1826,4.182,4.1814,4.1796,4.1841,4.1864,4.1874,4.1759,4.1759,4.1759,4.1758,0,0,4.1333,4.1401,4.1413,4.144,4.1492,4.1528,4.1576,4.1627,4.1654,4.1693,4.1735,4.1799,4.1795,4.1824,4.1838,4.187,4.1922,4.1861,4.1862,4.1873,4.1998,4.2004,4.2014,4.1924,4.1926,4.1927,4.1995,0,4.139,4.1476,4.1497,4.1572,4.1616,4.1626,4.1668,4.1706,4.1728,4.1769,4.1794,4.184,4.183,4.1848,4.1881,4.1909,4.1948,4.1904,4.1965,4.1967,4.1956,4.2026,4.2031,4.2093,4.2004,4.2006,4.2007,0,4.1467,4.151,4.1589,4.1638,4.1658,4.1695,4.1745,4.1784,4.1827,4.1841,4.1875,4.1886,4.1938,4.1917,4.199,4.196,4.1987,4.2004,4.2007,4.2015,4.1991,4.2037,4.2113,4.2124,4.2021,4.202,4.2019,0,4.1499,4.1576,4.1634,4.1657,4.1714,4.1741,4.1767,4.1808,4.1839,4.1882,4.1902,4.1951,4.1978,4.2016,4.204,4.2022,4.2112,4.2092,4.2127,4.2127,4.2147,4.2145,4.223,4.2161,4.216,4.216,4.216,0,4.1561,4.161,4.165,4.1686,4.1741,4.1765,4.182,4.1845,4.1883,4.1925,4.1936,4.1975,4.2004,4.2047,4.2066,4.2126,4.2137,4.2152,4.2157,4.2152,4.215,4.217,4.2167,4.2163,4.2162,4.2162,4.2161,0,4.1606,4.1635,4.1699,4.175,4.1763,4.1802,4.1846,4.1882,4.1905,4.1959,4.1972,4.201,4.2062,4.209,4.2154,4.2167,4.2235,4.2236,4.2221,4.2223,4.2257,4.2255,4.2359,4.2376,4.2293,4.2294,4.2294,0,4.1645,4.1683,4.1738,4.1768,4.1794,4.184,4.1872,4.1897,4.193,4.1983,4.2013,4.2066,4.211,4.2193,4.2226,4.2277,4.2281,4.2314,4.2288,4.2283,4.2284,4.2282,4.2287,4.2319,4.232,4.232,4.2321,0,4.1712,4.1725,4.177,4.1821,4.1858,4.1899,4.1939,4.1963,4.1995,4.2031,4.2085,4.2119,4.2187,4.224,4.2294,4.232,4.2327,4.2329,4.234,4.2336,4.2327,4.2335,4.2235,4.2326,4.2326,4.2325,4.2325,4.2325,4.1757,4.1792,4.1837,4.1888,4.1921,4.1959,4.1997,4.2026,4.2071,4.2129,4.2141,4.2199,4.2243,4.2316,4.2344,4.2391,4.2384,4.2399,4.2404,4.2408,4.2411,4.2318,4.24,4.24,4.24,4.24,4.24,0,4.1826,4.1856,4.1902,4.196,4.2,4.2003,4.2048,4.2082,4.2133,4.2174,4.2217,4.2281,4.2333,4.2371,4.2425,4.2455,4.246,4.2468,4.2467,4.2474,4.2412,4.2398,4.2464,4.2464,4.2464,4.2464,4.2464,4.2464,4.1867,4.1928,4.1947,4.2025,4.2055,4.2112,4.2139,4.2175,4.2208,4.2278,4.2322,4.2347,4.2387,4.2445,4.2493,4.2503,4.2523,4.2533,4.2543,4.2485,4.2478,4.2471,4.2459,4.2536,4.2536,4.2601,4.2602,4.2603]}]]